EA3DKP Weather Reports


time (UTC)temp
F
wind
direction
speed
knots
gust
knots
rain 1hr
in
rain 24hr
in
rain mn
in
humidity
%
barometer
mb
20260507191521 62 360 0.0 0.0 0.00 0.00 0.00 76 1010.8
20260507190020 62 360 0.0 0.0 0.00 0.00 0.00 75 1010.9
20260507184519 63 360 0.0 0.0 0.00 0.00 0.00 74 1010.7
20260507183015 63 360 0.0 0.0 0.00 0.00 0.00 71 1010.4
20260507181512 64 360 0.0 0.0 0.00 0.00 0.00 70 1010.4
20260507180010 65 360 0.0 0.0 0.00 0.00 0.00 69 1010.4
20260507174512 65 360 0.0 0.0 0.00 0.00 0.00 68 1010.6
20260507173056 65 360 0.0 0.0 0.00 0.00 0.00 66 1010.5
20260507171554 65 360 0.0 0.0 0.00 0.00 0.00 65 1010.4
20260507170054 65 360 0.0 0.0 0.00 0.00 0.00 62 1010.6
20260507164550 66 360 0.0 0.0 0.00 0.00 0.00 55 1010.7
20260507163047 67 279 0.0 0.0 0.00 0.00 0.00 55 1010.7
20260507161548 68 360 0.0 0.0 0.00 0.00 0.00 53 1010.5
20260507160045 68 360 0.0 0.0 0.00 0.00 0.00 52 1010.5
20260507154544 68 360 0.0 0.0 0.00 0.00 0.00 54 1010.6
20260507153040 68 360 0.0 0.0 0.00 0.00 0.00 50 1010.7
20260507151530 68 360 0.0 0.0 0.00 0.00 0.00 52 1010.6
20260507150030 68 279 0.0 0.0 0.00 0.00 0.12 53 1010.6
20260507144527 68 238 0.0 0.0 0.00 0.00 0.12 54 1010.8
20260507143027 68 261 0.0 0.0 0.00 0.00 0.12 54 1010.9
20260507141526 68 222 0.0 0.0 0.00 0.00 0.12 55 1010.9
20260507140025 68 225 0.0 0.0 0.00 0.00 0.12 55 1011.0
20260507134525 68 218 0.0 0.0 0.00 0.00 0.12 53 1011.2
20260507133013 68 360 0.0 0.0 0.00 0.00 0.12 54 1011.4
20260507131518 68 233 0.0 0.0 0.00 0.00 0.12 53 1011.4
20260507130021 70 360 0.0 0.0 0.00 0.00 0.12 53 1011.6
20260507124519 69 360 0.0 0.0 0.00 0.00 0.12 55 1011.5
20260507123011 69 272 0.0 0.0 0.00 0.00 0.12 55 1011.4
20260507121510 69 360 0.0 0.0 0.00 0.00 0.12 55 1011.4
20260507120011 69 360 0.0 0.0 0.00 0.00 0.12 58 1011.5
20260507114504 68 360 0.0 0.0 0.00 0.00 0.12 59 1011.5
20260507113051 67 360 0.0 0.0 0.00 0.00 0.12 61 1011.8
20260507111550 67 360 0.0 0.0 0.00 0.00 0.12 62 1011.9
20260507110048 67 277 0.0 0.0 0.00 0.00 0.12 61 1011.9
20260507104544 66 279 0.0 0.0 0.00 0.00 0.12 64 1012.0
20260507103040 65 360 0.0 0.0 0.00 0.00 0.12 69 1012.2
20260507101538 64 277 0.0 0.0 0.00 0.00 0.12 73 1012.4
20260507100036 64 360 0.0 0.0 0.00 0.00 0.12 73 1012.3
20260507094535 64 360 0.0 0.0 0.00 0.00 0.12 73 1012.3
20260507093025 64 360 0.0 0.0 0.00 0.00 0.12 72 1012.2
20260507091525 64 360 0.0 0.0 0.00 0.00 0.12 72 1012.1
20260507090021 64 120 0.0 0.0 0.00 0.00 0.12 73 1012.0
20260507084517 62 135 0.0 0.0 0.00 0.00 0.12 76 1012.2
20260507083012 61 134 0.0 0.0 0.00 0.00 0.12 76 1012.4
20260507081509 61 360 0.0 0.0 0.00 0.00 0.12 80 1012.5
20260507080005 60 123 0.0 0.0 0.00 0.00 0.12 83 1012.6
20260507074601 59 360 0.0 0.0 0.00 0.00 0.12 86 1012.4
20260507073045 58 360 0.0 0.0 0.00 0.00 0.12 87 1012.4
20260507071600 57 360 0.0 0.0 0.00 0.00 0.12 88 1012.3
20260507070037 56 360 0.0 0.0 0.00 0.00 0.12 88 1012.2
20260507064531 56 360 0.0 0.0 0.00 0.00 0.12 89 1012.2
20260507063026 55 360 0.0 0.0 0.00 0.00 0.12 89 1012.2
20260507061523 54 360 0.0 0.0 0.00 0.00 0.12 89 1011.9
20260507060018 53 360 0.0 0.0 0.00 0.00 0.12 89 1011.9
20260507054515 52 360 0.0 0.0 0.00 0.00 0.12 88 1011.8
20260507053002 52 360 0.0 0.0 0.00 0.00 0.12 88 1011.8
20260507051606 52 360 0.0 0.0 0.00 0.00 0.12 88 1011.6
20260507050104 51 360 0.0 0.0 0.00 0.00 0.12 88 1011.5
20260507044559 52 126 0.0 0.0 0.00 0.00 0.12 88 1011.6
20260507043056 52 360 0.0 0.0 0.00 0.00 0.12 88 1011.7
20260507041556 53 360 0.0 0.0 0.00 0.00 0.12 88 1011.6
20260507040052 53 360 0.0 0.0 0.00 0.00 0.12 88 1011.5
20260507034550 54 360 0.0 0.0 0.00 0.00 0.12 88 1011.5
20260507033044 54 360 0.0 0.0 0.00 0.00 0.12 88 1011.5
20260507031539 54 360 0.0 0.0 0.00 0.00 0.12 88 1011.6
20260507030039 54 360 0.0 0.0 0.00 0.00 0.12 88 1011.5
20260507024540 54 360 0.0 0.0 0.00 0.00 0.12 88 1011.4
20260507023037 54 126 0.0 0.0 0.00 0.00 0.12 88 1011.5
20260507021537 54 126 0.0 0.0 0.00 0.00 0.12 88 1011.4
20260507020037 54 360 0.0 0.0 0.00 0.00 0.12 88 1011.4
20260507014542 54 126 0.0 0.0 0.00 0.00 0.12 88 1011.6
20260507013016 54 126 0.0 0.0 0.00 0.00 0.12 88 1011.7
20260507011516 54 126 0.0 0.0 0.00 0.00 0.12 88 1011.8
20260507010004 55 360 0.0 0.0 0.00 0.00 0.12 88 1011.9
20260507004503 55 360 0.0 0.0 0.00 0.00 0.12 88 1012.1
20260507003004 55 360 0.0 0.0 0.00 0.00 0.12 88 1012.2
20260507001501 55 360 0.0 0.0 0.00 0.00 0.12 87 1012.2
20260507000002 55 360 0.0 0.0 0.00 0.00 0.12 87 1012.3
20260506234559 55 360 0.0 0.0 0.00 0.00 0.12 87 1012.4
20260506233059 56 360 0.0 0.0 0.00 0.00 0.12 87 1012.4
20260506231601 56 360 0.0 0.0 0.00 0.00 0.12 87 1012.3
20260506230058 56 360 0.0 0.0 0.00 0.00 0.12 87 1012.5
20260506224545 56 360 0.0 0.0 0.00 0.00 0.12 87 1012.5
20260506223044 57 360 0.0 0.0 0.00 0.00 0.12 87 1012.5
20260506221542 56 360 0.0 0.0 0.00 0.00 0.12 87 1012.3
20260506220047 56 126 0.0 0.0 0.00 0.00 0.12 86 1012.3
20260506214549 56 126 0.0 0.0 0.00 0.00 0.12 87 1012.2
20260506213041 57 126 0.0 0.0 0.00 0.00 0.12 87 1012.2
20260506211539 57 126 0.0 0.0 0.00 0.00 0.12 87 1012.2
20260506210039 57 126 0.0 0.0 0.00 0.00 0.12 87 1012.2
20260506204521 57 126 0.0 0.0 0.00 0.00 0.12 87 1012.3
20260506203021 58 360 0.0 0.0 0.00 0.00 0.12 87 1012.2
20260506201516 58 360 0.0 0.0 0.00 0.00 0.12 87 1012.2
20260506200020 58 37 0.0 0.0 0.00 0.00 0.11 87 1012.1
20260506194518 57 36 0.0 0.0 0.00 0.00 0.10 87 1011.9
20260506193011 57 36 0.0 0.0 0.00 0.00 0.10 87 1011.7